EHI
0 0 0 0 0 0 0 0 0 0 0 0 0 0 0 0 0 0 0 0 0 0 0 0 0 0 0 0 0 0 0 0 0 0 0 0 0 0 0 0 0 0 0
0 0 0 0 0 0 0 0 0 0 0 0 0 0 0 0 0 0 0 0 0 0 0 0 0 0 0 0 0 0 0 0 0 0 0 0 0 0 0 0 0 0 0
0 0 0 0 0 0 0 0 0 0 0 0 0 0 0 1 1 0 0 0 0 0 0 0 0 0 0 0 0 0 0 0 0 0 0 0 0 0 0 0 0 0 0
0 0 0 0 0 0 0 0 0 0 0 0 0 0 0 1 1 0 0 0 0 0 0 0 0 0 0 0 0 0 0 0 0 0 0 0 0 0 0 0 0 0 0
0 0 0 0 0 0 0 0 0 0 0 0 0 0 0 1 1 0 0 0 0 0 0 0 0 0 0 0 0 0 0 0 0 0 0 0 0 0 0 0 0 0 0
0 0 0 0 0 0 0 0 0 0 0 0 0 0 0 0 0 0 0 0 0 0 0 0 0 0 0 0 0 0 0 0 0 0 0 0 0 0 0 0 0 0 0
0 0 0 0 0 0 0 0 0 0 0 0 0 0 0 0 0 0 0 0 0 0 0 0 1 1 1 0 0 0 0 0 0 0 0 0 0 0 0 0 0 0 0
0 0 0 0 0 0 0 0 0 0 0 0 0 0 0 0 0 0 0 0 0 0 0 0 1 2 1 0 0 0 0 0 0 0 0 0 0 1 0 0 0 0 0
0 0 0 0 0 0 0 0 0 0 0 0 0 0 0 0 0 0 0 0 0 0 0 0 1 1 1 0 0 0 0 0 0 0 0 0 0 0 0 0 0 0 0
0 0 0 0 0 0 0 0 0 0 0 0 0 0 0 0 0 0 0 0 0 0 0 0 0 0 0 0 0 0 0 0 0 0 0 0 0 0 0 0 0 0 0
0 0 0 0 0 0 0 0 0 0 0 0 0 0 0 0 0 0 0 0 0 0 0 0 0 0 0 0 0 0 0 0 0 0 0 0 0 0 0 1 1 1 0
0 0 0 0 0 0 0 0 0 0 0 0 0 0 0 0 0 0 0 0 0 0 0 0 0 0 0 0 0 0 0 0 0 0 0 0 0 0 0 1 2 1 1
0 0 0 0 0 0 0 0 0 0 0 0 0 0 0 0 0 0 0 0 0 0 0 0 0 0 0 0 0 0 0 0 0 0 1 1 1 0 0 0 1 1 0
0 0 0 0 0 0 0 0 0 0 0 0 0 0 0 0 0 0 0 0 0 0 0 0 0 0 0 0 0 0 0 0 0 0 1 2 2 1 0 0 0 0 0
0 0 0 0 0 0 0 0 0 0 0 0 0 0 0 0 0 0 0 0 0 0 0 0 0 0 0 0 0 0 0 0 0 0 0 1 1 1 0 0 0 0 0
0 0 0 0 0 0 0 0 0 0 0 0 0 0 0 0 0 0 0 0 0 0 0 0 0 0 0 0 0 0 0 0 0 0 0 0 0 0 0 0 0 0 0
0 0 0 0 0 0 0 0 0 0 0 0 0 0 0 0 0 0 0 0 0 0 0 0 0 0 0 0 0 0 0 0 0 0 0 0 0 0 0 0 0 0 0
0 0 0 0 0 0 0 0 0 0 0 0 0 0 0 0 0 0 0 0 0 0 0 0 0 0 0 0 0 0 0 0 0 0 0 0 0 0 0 0 0 0 0
0 0 0 0 0 0 0 0 0 0 0 0 0 0 0 0 0 0 0 0 0 0 0 0 0 0 0 0 0 0 0 0 0 0 0 0 0 0 0 0 0 0 0
0 0 0 0 0 0 0 0 0 0 0 0 0 0 0 0 0 0 0 0 0 0 0 0 0 0 0 0 0 0 0 0 0 0 0 0 0 0 0 0 0 0 0
0 0 0 0 0 0 0 0 0 0 0 0 0 0 0 0 0 0 0 0 0 0 0 0 0 0 0 0 0 0 0 0 0 0 0 0 0 0 0 0 1 0 0
0 0 0 0 0 0 0 0 0 0 0 0 0 0 0 0 0 0 0 0 0 0 0 0 0 0 0 0 0 0 0 0 0 0 0 0 0 0 0 0 0 0 0
0 0 0 0 0 0 0 0 0 0 0 0 0 0 0 0 0 0 0 0 0 0 0 0 0 0 0 0 0 0 0 0 0 0 0 0 0 0 0 0 0 0 0
0 0 0 0 0 0 0 0 0 0 0 0 0 0 0 0 0 0 0 0 0 0 0 0 0 0 0 0 0 0 0 0 0 0 0 0 0 0 0 0 0 0 0
0 0 0 0 0 0 0 0 0 0 0 0 0 0 0 0 0 0 0 0 0 0 0 0 0 0 0 0 0 0 0 0 0 0 0 0 0 0 0 0 0 0 0
0 0 0 0 0 0 0 0 0 0 0 0 0 0 0 0 0 0 0 0 0 0 0 0 0 0 0 0 0 0 0 0 0 0 0 0 0 0 0 0 0 0 0
Wind_Speed
15 17 27 28 28 27 26 25 23 22 21 19 17 16 15 14 14 13 12 11 10 9 10 10 10 9 9 8 7 6 5 4 3 4 4 4 3 3 3 2 1 1 7
11 14 25 27 28 28 28 27 26 26 25 23 21 19 17 15 14 13 13 12 11 11 10 11 11 10 10 10 9 7 6 5 5 4 5 6 5 5 4 2 2 4 6
9 13 19 26 27 28 28 27 27 26 26 26 25 23 21 19 17 15 14 14 13 12 12 12 11 11 11 10 10 9 8 7 6 5 6 5 6 8 7 4 1 3 4
9 10 17 24 26 27 28 28 28 27 27 26 26 25 24 22 20 19 17 16 15 14 13 13 13 12 11 10 10 10 10 8 8 7 5 7 7 10 9 7 5 4 4
9 9 16 26 25 26 27 27 27 27 27 27 27 26 25 24 23 22 20 18 16 15 14 13 13 13 12 11 10 11 11 10 8 7 7 7 5 10 10 9 7 6 5
12 12 16 26 26 25 26 26 26 27 27 26 27 27 26 25 24 23 22 21 19 18 16 14 14 13 12 11 11 12 12 10 8 6 7 8 4 11 11 10 8 6 6
12 12 15 26 27 27 25 26 26 26 26 26 26 27 26 25 24 23 23 23 22 21 19 17 15 13 12 12 11 12 12 11 7 6 7 7 5 12 12 11 10 9 8
13 12 14 24 27 28 27 26 26 24 25 25 25 27 27 25 24 24 23 24 23 22 21 20 17 15 13 12 12 12 11 10 9 9 7 6 6 11 13 12 12 11 10
12 13 14 15 19 25 27 27 27 25 25 25 24 26 27 26 25 25 24 24 24 24 23 21 20 17 15 14 13 11 10 11 7 5 8 5 8 12 13 12 12 13 12
12 13 15 15 15 16 16 23 26 25 25 26 25 26 26 24 24 24 24 25 25 25 24 22 22 20 18 16 14 12 10 8 7 8 6 6 10 14 14 12 12 13 13
15 14 14 15 15 15 14 19 19 21 22 23 19 24 20 12 12 14 22 26 25 26 24 24 25 23 19 14 14 14 11 5 7 7 6 9 13 15 15 13 11 12 13
16 15 14 14 15 15 14 12 10 11 11 12 12 13 10 10 11 16 21 24 25 25 23 24 26 22 15 9 10 11 5 7 9 7 7 14 16 16 14 13 11 12 13
12 13 14 14 13 14 12 11 8 8 8 10 12 12 10 9 9 10 9 12 13 16 11 16 16 12 11 9 8 7 6 7 6 6 7 15 17 16 14 13 13 13 14
11 13 14 14 12 12 11 9 9 8 8 9 11 12 10 8 9 10 9 10 9 8 9 10 10 13 13 14 12 10 9 7 7 5 5 13 15 15 14 13 14 14 15
13 14 14 13 13 12 10 9 10 9 9 10 9 9 10 8 9 10 10 10 10 8 10 11 11 12 13 13 13 13 12 11 10 8 5 12 15 15 14 14 15 16 16
12 13 13 13 14 14 12 10 9 8 8 8 8 11 11 9 9 9 10 10 10 9 10 10 12 12 11 11 13 15 14 11 10 9 7 9 15 16 16 16 16 18 18
11 12 14 14 15 15 13 12 10 9 10 8 8 9 11 12 10 10 9 9 9 9 11 10 11 9 10 11 13 15 14 13 12 12 9 5 8 14 16 17 18 18 19
11 12 13 14 14 14 13 11 9 9 10 9 8 8 11 13 13 11 10 10 10 10 9 10 9 10 10 10 11 11 12 12 15 14 10 7 5 7 12 17 17 19 20
11 11 12 12 13 13 12 10 10 9 9 9 8 8 10 12 13 11 10 10 13 10 10 11 10 10 11 11 11 11 10 11 13 15 14 10 7 6 6 13 18 18 19
10 10 11 12 12 12 9 9 8 9 9 8 7 9 12 10 13 12 10 12 13 11 10 11 12 11 10 11 13 12 11 12 12 13 14 11 7 7 7 7 8 12 17
10 11 11 11 12 10 9 10 10 11 10 9 8 12 12 12 13 11 10 11 12 11 12 13 13 13 11 10 10 11 10 12 14 12 11 10 9 7 6 7 6 6 8
9 10 10 10 11 10 9 8 8 10 9 9 9 10 11 12 13 12 11 10 11 11 13 13 13 10 10 9 9 10 8 8 5 8 8 10 10 7 7 8 8 8 7
8 9 10 10 11 10 10 8 9 7 7 7 9 7 10 12 12 12 11 10 10 10 10 13 13 13 11 10 7 6 6 7 12 11 10 8 6 6 7 6 8 8 8
7 7 8 9 10 9 9 9 11 10 10 11 9 9 11 12 12 12 12 11 10 10 12 12 12 12 12 9 8 6 7 8 7 9 12 10 12 9 7 7 7 8 8
6 6 7 8 8 9 9 9 9 9 8 9 10 11 10 9 10 12 13 11 11 10 12 13 14 13 10 10 8 8 9 8 10 9 13 15 11 9 8 6 5 6 8
6 6 7 8 8 8 9 9 9 10 11 12 12 11 10 9 8 10 14 11 11 11 12 13 14 14 11 11 9 8 9 8 7 8 10 14 14 12 11 8 5 3 5
Wind_Direction
337 341 352 8 18 23 23 21 18 13 8 3 357 354 354 354 351 350 351 352 348 342 332 323 318 314 310 307 307 307 301 300 300 303 292 273 234 179 156 178 303 152 123
321 351 2 14 19 22 23 23 23 22 19 14 8 1 354 349 346 343 341 341 341 338 332 323 316 308 302 299 298 292 280 274 269 269 272 266 237 205 184 188 2 111 125
339 7 6 18 23 24 24 23 22 21 20 18 14 11 5 358 351 345 338 336 333 330 327 321 314 306 297 292 289 283 275 267 260 252 254 254 221 207 196 184 146 116 124
352 19 13 19 23 24 24 23 22 21 20 19 15 11 8 6 2 355 347 341 337 331 324 317 312 305 295 284 277 272 268 262 256 251 247 245 217 202 196 190 190 178 164
6 20 17 18 21 23 22 21 20 19 18 18 16 13 9 7 6 3 358 351 344 336 325 315 308 304 298 287 274 265 261 256 250 246 259 263 215 187 191 192 196 197 187
16 14 17 18 16 18 20 18 18 17 15 15 14 11 9 7 6 5 4 0 353 345 334 321 310 302 298 293 280 265 257 251 243 236 248 259 213 177 187 191 196 200 194
16 13 13 16 14 11 14 14 12 13 11 11 12 9 6 4 4 4 4 2 357 350 343 331 317 306 299 295 288 273 260 250 236 245 246 255 224 179 190 193 197 201 199
16 14 12 13 11 8 6 9 6 7 8 6 8 7 3 1 1 1 2 359 355 351 346 338 327 313 303 297 293 284 267 251 241 239 243 246 238 187 196 198 200 202 201
20 15 13 11 8 5 0 3 1 1 5 1 4 5 1 358 357 357 358 354 351 349 346 341 335 323 307 296 291 288 275 251 246 256 253 231 227 210 207 205 209 208 202
23 17 15 9 7 2 353 359 357 356 2 358 360 1 360 356 354 352 354 348 349 347 344 343 341 332 317 299 286 279 271 260 240 248 248 233 221 216 213 210 216 214 205
20 16 14 7 5 0 353 355 353 354 359 356 355 357 357 351 349 347 348 344 347 344 344 346 344 336 328 308 286 267 255 238 240 239 232 228 218 212 211 213 218 215 207
14 11 12 5 3 0 354 352 347 350 354 352 350 351 352 351 346 349 343 341 344 340 346 346 341 339 336 323 310 294 256 238 243 241 220 214 214 213 212 214 217 217 212
12 10 9 4 2 1 353 350 347 348 351 348 346 349 352 351 345 346 340 336 337 338 346 342 340 335 330 323 313 304 277 258 255 249 225 207 203 210 215 218 220 221 218
13 10 8 1 1 358 352 347 347 347 349 345 341 348 353 352 347 344 339 333 333 336 342 339 329 326 328 324 318 311 297 274 261 256 241 196 190 200 212 222 227 227 225
12 10 5 358 2 356 351 349 349 345 346 341 339 345 354 354 345 342 336 333 330 339 341 331 325 328 328 324 322 320 313 303 284 264 246 196 185 191 206 221 230 232 230
11 8 2 359 2 356 353 350 346 344 342 339 338 342 353 354 341 339 332 330 330 340 333 325 326 327 324 324 324 323 316 309 297 285 263 212 198 194 203 217 228 233 233
10 8 4 360 1 355 349 349 348 344 342 337 337 341 353 351 340 339 331 327 331 333 328 326 325 327 327 327 324 322 318 312 306 294 279 243 215 208 205 213 223 230 234
11 9 5 1 357 353 347 348 345 344 341 337 337 343 352 346 342 339 332 326 332 333 328 327 331 334 329 325 322 316 311 308 304 298 288 272 237 214 212 214 219 225 230
14 8 2 359 356 351 347 347 340 342 338 334 336 343 346 343 343 339 328 329 335 332 330 332 334 331 328 324 318 307 304 303 301 298 291 276 259 234 207 210 214 221 225
15 8 0 358 354 350 350 343 338 340 336 331 334 344 343 341 341 336 328 335 334 329 330 330 328 330 326 323 317 311 304 291 283 279 279 275 259 243 222 204 200 218 222
14 6 358 357 352 352 353 345 342 339 335 331 338 343 339 339 338 332 335 334 332 328 327 326 328 325 325 323 321 319 297 275 260 259 259 259 254 246 232 216 197 194 211
15 4 354 356 350 352 350 340 335 329 326 328 336 330 333 337 335 335 335 334 331 327 324 325 325 319 319 330 325 319 316 305 325 287 264 248 240 234 235 225 209 203 195
17 4 353 350 347 348 347 339 335 325 327 333 334 330 335 336 333 331 331 333 329 327 322 322 320 320 318 315 310 309 317 323 331 306 311 296 268 235 227 225 215 211 205
17 2 348 344 344 346 346 341 339 339 336 334 331 329 333 332 330 332 333 333 328 326 322 320 322 315 310 309 308 290 282 293 299 310 312 319 323 297 252 226 217 211 207
15 0 346 342 343 343 345 340 337 333 330 327 328 329 329 327 328 332 333 330 327 324 322 320 317 310 306 302 303 300 288 272 263 277 292 301 307 304 303 271 225 207 203
11 358 345 343 341 342 342 340 338 333 333 331 333 331 329 327 329 331 331 328 325 325 323 320 314 308 303 299 299 299 292 279 265 262 272 288 297 301 308 300 280 228 200